Home > Weather > Nome > Past weeks

Flag for U.S.A. Weather for the Past 2 Weeks in Nome, Alaska, U.S.A.

Now
24 °F

Light snow. Ice fog.


Feels Like: 12 °F
Forecast: 20 / 25 °F
Wind: 13 mph from East

Location: Nome Airport

Current Time: Feb 6, 2016 at 7:24:50 AM

Latest Report: Feb 6, 2016 at 6:53 AM


Visibility: 1 mi

Pressure: 29.34 "Hg

Humidity: 91%

Dew point: 22 °F

Location of NomeLocation

Historic Weather in Nome — Graph

°F

Nome Temperature Yesterday

Maximum temperature yesterday: 23 °F (at 9:53 PM)
Minimum temperature yesterday: 9 °F (at 10:53 AM)
Average temperature yesterday: 17 °F

High & Low Weather Summary for the Past Weeks

 TemperatureHumidityPressure
High33 °F (Jan 31, 12:53 PM)96% (Jan 30, 3:53 AM)29.88 "Hg (Jan 30, 3:53 AM)
Low-13 °F (Jan 23, 10:53 PM)42% (Jan 22, 4:53 PM)28.79 "Hg (Jan 28, 8:56 AM)
Average19 °F74%29.30 "Hg
* Reported Jan 22 5:53 AM — Feb 6 5:53 AM, Nome, Weather by CustomWeather, © 2016

Note: Actual official high and low records may vary slightly from our data, if they occured in-between our weather recording intervals... More about our weather records

Advertising

Nome Weather History for the Previous 24 Hours

 ConditionsComfort  
Time TempWeatherWind HumidityBarometerVisibility
5:53 AM
Sat, Feb 6
24 °FLight snow. Ice fog.8 mph91%29.34 "Hg1 mi
4:53 AM23 °FLight snow. Ice fog.12 mph92%29.33 "Hg4 mi
3:53 AM23 °FOvercast.16 mph88%29.31 "Hg10 mi
2:53 AM23 °FMostly cloudy.15 mph85%29.29 "Hg10 mi
1:53 AM23 °FOvercast.12 mph85%29.28 "Hg10 mi
12:53 AM23 °FOvercast.12 mph85%29.26 "Hg10 mi
11:53 PM
Fri, Feb 5
22 °FOvercast.9 mph89%29.25 "Hg10 mi
10:53 PM23 °FOvercast.8 mph78%29.23 "Hg10 mi
9:53 PM23 °FOvercast.7 mph74%29.20 "Hg10 mi
8:53 PM22 °FMostly cloudy.9 mph62%29.19 "Hg10 mi
7:53 PM19 °FOvercast.6 mph71%29.17 "Hg10 mi
6:53 PM18 °FOvercast.8 mph68%29.15 "Hg10 mi
5:53 PM15 °FSunny.8 mph67%29.14 "Hg10 mi
4:53 PM16 °FScattered clouds.12 mph65%29.13 "Hg10 mi
3:53 PM17 °FScattered clouds.10 mph64%29.13 "Hg10 mi
2:53 PM19 °FPassing clouds.7 mph62%29.12 "Hg10 mi
1:53 PM18 °FPassing clouds.8 mph62%29.12 "Hg10 mi
12:53 PM17 °FPassing clouds.22 mph62%29.09 "Hg10 mi
11:53 AM10 °FPassing clouds.3 mph80%29.09 "Hg10 mi
10:53 AM9 °FPassing clouds.No wind76%29.08 "Hg10 mi
9:53 AM10 °FClear.3 mph73%29.07 "Hg10 mi
8:53 AM16 °FClear.No wind65%29.05 "Hg10 mi
7:53 AM20 °FPassing clouds.7 mph60%29.05 "Hg10 mi
Weather by CustomWeather, © 2016

See weather overviewHow to use our weather pages